Regional Weather Roundup
Issued by NWS Jackson, KY

Home | Current Version | Previous Version | Graphics & Text | Print | Product List | Glossary On
Versions: 1 2 3 4 5 6 7 8 9 10 11 12 13 14 15 16 17 18 19 20 21 22 23 24 25 26 27 28 29 30 31 32 33 34 35 36 37 38 39 40 41 42 43 44 45 46 47 48 49 50
000
ASUS43 KJKL 160705
RWRJKL

EAST KENTUCKY HOURLY WEATHER ROUNDUP
NATIONAL WEATHER SERVICE JACKSON KY
300 AM EDT WED APR 16 2014

NOTE: "FAIR" INDICATES FEW OR NO CLOUDS BELOW 12,000 FEET WITH
NO SIGNIFICANT WEATHER AND/OR OBSTRUCTIONS TO VISIBILITY.

* THESE REPORTS ARE NOT UNDER NWS QUALITY CONTROL AND MAY NOT
  REPORT WEATHER SUCH AS PRECIPITATION AND FOG.

KYZ079-080-083-085-087-088-110-112-115-119-120-160800
...EASTERN KENTUCKY...

CITY           SKY/WX    TMP DP  RH WIND       PRES   REMARKS
JACKSON        CLEAR     29  19  66 VRB3      30.25R
LONDON         CLEAR     31  21  66 N3        30.26R
SOMERSET*      CLEAR     30  23  74 N3        30.30R
MONTICELLO*    CLEAR    106  32   7 CALM      30.29R HX  99
WILLIAMSBURG*  CLEAR     28  25  86 N3        30.26R
MIDDLESBORO*   CLEAR     30  24  78 CALM      30.25R
HARLAN APT*    SUNNY     30  21  69 N3        30.22S
BLACK MTN*       N/A     18  18 100 NW5         N/A  WCI  11
PIKEVILLE APT* CLEAR     28  19  69 NE6       30.24R WCI  22
BIG SANDY*     SUNNY     29  20  69 NE5       30.26R WCI  24
$$

KYZ035-036-041-042-044-050-067-078-099-160800
...CENTRAL KENTUCKY...

CITY           SKY/WX    TMP DP  RH WIND       PRES   REMARKS
MT STERLING*   CLEAR     28  23  80 CALM      30.30R
FLEMING/MASON* CLEAR     29  18  62 NE3       30.30R
DANVILLE*      CLEAR     28  21  74 CALM      30.29S
RICHMOND*      CLEAR     30  19  64 CALM      30.28R
LEXINGTON      CLEAR     30  18  60 NE3       30.29R
FRANKFORT      CLEAR     27  22  81 CALM      30.28R
$$

KYZ091>093-OHZ055-061-077-WVZ005-015-034-035-042-160800
...SOUTHERN OHIO/WEST VIRGINIA...

CITY           SKY/WX    TMP DP  RH WIND       PRES   REMARKS
COVINGTON      PTCLDY    31  16  54 E7        30.28R WCI  24
COLUMBUS       CLEAR     30  15  53 N5        30.26R WCI  25
DAYTON         CLEAR     27  17  66 CALM      30.28R
WILMINGTON     CLEAR     26  17  68 CALM      30.27R
HUNTINGTON     CLEAR     29  18  63 N5        30.27R WCI  24
CHARLESTON     CLEAR     30  18  60 CALM      30.25R
PINEVILLE*     PTCLDY    31  22  71 MISG      30.25R
BECKLEY        PTCLDY    25  13  60 N8        30.15R WCI  16
BLUEFIELD      CLOUDY    27  14  58 N7        30.14R WCI  19
$$

VAZ002-007-008-TNZ017-027-036-066-071-160800
...SOUTHWEST VIRGINIA/EAST TENNESSEE...

CITY           SKY/WX    TMP DP  RH WIND       PRES   REMARKS
WISE*          CLEAR     27  18  69 N8        30.17S WCI  18
ABINGDON*      CLEAR     31  16  55 CALM      30.18R
BRISTOL        PTCLDY    31  16  54 N6        30.22R WCI  25
KNOXVILLE      CLEAR     32  23  69 NE7       30.23R WCI  26
OAK RIDGE      CLEAR     32  25  75 CALM      30.26R
CROSSVILLE     CLEAR     32  21  64 N6        30.22R WCI  26
NASHVILLE      CLEAR     35  23  61 N5        30.28S WCI  31
$$

...KEY TO REMARKS...
VSB - VISIBILITY IN MILES
WCI - WIND CHILL INDEX
HX  - HEAT INDEX

$$



USA.gov is the U.S. government's official web portal to all federal, state and local government web resources and services.